Weather in Multa

Russia / Altai Republic     50°10′08″N   85°57′21″E
temp.,
°C
wind,
m/s
gust,
m/s
humid.,
%
clouds,
%
prec.,
mm/h
press.,
hPa
HPBL,
m
23 may, mon
mon2301:00+11ne116479 0.0 101311
04:00+9nne016671 0.0 101510
07:00+11ssw016345 0.0 101671
10:00+15wsw225142 0.0 1016879
13:00+19sw214475 0.0 10151404
16:00+19nw2247100 0.1 10151548
19:00+18ene115199 0.1 10161031
22:00+12ne236963 0.0 101839
24 may, tue
tue2401:00+10ene227430 0.0 101835
04:00+9ene227756 0.0 101726
07:00+11e12715 0.0 1016124
10:00+17sse12537 0.0 1014713
13:00+22s02395 0.0 10111127
16:00+24w133292 0.0 10091495
19:00+23ssw1143100 0.0 100951
22:00+17ene3461100 0.1 101268
25 may, wed
wed2501:00+14ene226692 0.1 101318
04:00+13ene116759 0.0 101210
07:00+15ese016574 0.0 101244
10:00+21sw114719 0.0 1011449
13:00+25wnw242910 0.0 10091722
16:00+26wsw3526100 0.0 10082970
19:00+24w254087 0.0 1008633
22:00+16ne34681 0.0 101252
26 may, thu
thu2601:00+13ene117414 0.3 101313
04:00+12nne11801 0.0 101311
07:00+15n01730 0.1 101373
10:00+19wsw22560 0.2 1011466
13:00+24nw233621 0.3 10091802
16:00+23ssw444237 0.0 10081364
19:00+20w125199 0.0 100886
22:00+14ne227945 2.3 101137
27 may, fri
fri2701:00+13se01837 3.8 101111
04:00+11ene11895 0.0 101110
07:00+13sw01830 0.0 101196
10:00+17w22690 0.9 1009706
13:00+21w134823 3.0 10081747
16:00+22n343850 0.3 10072427
19:00+21nne34450 0.3 10081336
22:00+13nne22690 0.0 101129